Location: Newark
(39.6867°N, 100.6772°W)
Time: 08:42:04
(UTC+00:00)

Vanguard 1 Rocket - Pass Details

Date: 24 October 2019
Orbit: 651 x 4226 km, 34.3° (Epoch: 19 November)

Event Time Altitude Azimuth Distance (km) Brightness Sun altitude
Rises 15:12:01 0° 223° (SW) 4,363 10.8 21.5°
Reaches altitude 10° 15:14:31 10° 217° (SW) 3,711 10.6 21.9°
Maximum altitude 15:24:11 47° 146° (SSE) 2,879 11.3 23.3°
Drops below altitude 10° 15:42:12 10° 81° (E) 6,667 12.4 25.9°
Sets 15:48:35 0° 77° (ENE) 8,086 12.6 26.7°
